Hauptseite
METAR-TAF:

METAR-TAF

Flughäfen :

RAF

Holbeach, England

Breite: 52-52N, Länge: 000-09E, Höhe: 3 m

Beobachtung

Neuester Wetterbericht von vor 1 Stunde und 4 Minuten, um 10:50 UTC
Wind 21 kt aus Südwest
Temperatur 12°C
Luftfeuchtigkeit 88%
Luftdruck 1021 hPa
Sichtweite 10 km oder mehr
Aufgelockert bewölkt in der Höhe von 3000 ft

METAR: EGYH 141050Z 22021KT 9999 SCT030 12/10 Q1021 BLU

Zeit: 11:54 (11:54 UTC)


TAF: fehlend

Wetterbeobachtungen und Prognosen von mehr als 4000 Flughäfen (METAR und TAF Bericht).

Die verfügbaren Stationen werden durch gelbe und rote Markierungen auf der Karte dargestellt.

Führen Sie die Maus auf sie, um den Namen der Station zu sehen.

Darauf klicken, um die Beobachtung von Wetterbeobachtungen und Prognosen zu sehen.

Um die Karte zu ändern : klicken Sie auf den grünen Tasten mit einem schwarzen Kreuz Zum Vergrößern, auf den grünen Button mit einem Gedankenstrich zu verkleinern, oder auf die grünen Pfeile für benachbarte Karten.


METAR-TAF: